SCP
0 0 0 1 1 1 1 0 0 0 0 0 0 0 1 1 1 2 1 1 0 0 0 0 0 0 0 0 0 0 0 0 0 0 0 0 0 0 0 0 0 0 0 0
0 0 0 0 1 1 1 0 0 0 0 0 0 0 1 1 2 2 1 1 0 0 0 0 0 0 0 0 0 0 0 0 0 0 0 0 0 0 0 0 0 0 0 0
0 0 0 0 0 1 1 1 0 0 0 0 0 1 1 1 2 2 1 1 0 0 0 0 0 0 0 0 0 0 0 0 0 0 0 0 0 0 0 0 0 0 0 0
0 0 0 0 0 0 1 1 0 0 0 0 1 1 1 1 1 1 1 1 0 0 0 0 0 0 0 0 0 0 0 0 0 0 0 0 0 0 0 0 0 0 0 0
0 0 0 0 0 0 0 0 0 0 0 0 1 1 1 1 1 1 1 0 0 0 0 0 0 0 0 0 0 0 0 0 0 0 0 0 0 0 0 0 0 0 0 0
0 0 0 0 0 0 0 0 0 0 0 0 0 0 0 0 0 0 0 0 0 0 0 0 0 0 0 0 0 0 0 0 0 0 0 0 0 0 0 0 0 0 0 0
0 0 0 0 0 0 0 0 0 0 0 0 0 0 0 0 0 0 0 0 0 0 0 0 0 0 0 0 0 0 0 0 0 0 0 0 0 0 0 0 0 0 0 0
0 0 0 0 0 0 0 0 0 0 0 0 0 0 0 0 0 0 0 0 0 0 0 0 0 0 0 0 0 0 0 0 0 0 0 0 0 0 0 0 0 0 0 0
0 0 0 0 0 0 0 0 0 0 0 0 0 0 0 0 0 0 0 0 0 0 0 0 0 0 0 0 0 0 0 0 0 0 0 0 0 0 0 0 0 0 0 0
0 0 0 0 0 0 0 0 0 0 0 0 0 0 0 0 0 0 0 0 0 0 0 0 0 0 0 0 0 0 0 0 0 0 0 0 0 0 0 0 0 0 0 0
0 0 0 0 0 0 0 0 0 0 0 0 0 0 0 0 0 0 0 0 0 0 0 0 0 0 0 0 0 0 0 0 0 0 0 0 0 0 0 0 0 0 0 0
0 0 0 0 0 0 0 0 0 0 0 0 0 0 0 0 0 0 0 0 0 0 0 0 0 0 0 0 0 0 0 0 0 0 0 0 0 0 0 0 0 0 0 0
0 0 0 0 0 0 0 0 0 0 0 0 0 0 0 0 0 0 0 0 0 0 0 0 0 0 0 0 0 0 0 0 0 0 0 0 0 0 0 0 0 0 0 0
0 0 0 0 0 0 0 0 0 0 0 0 0 0 0 0 0 0 0 0 0 0 0 0 0 0 0 0 0 0 0 0 0 0 0 0 0 0 0 0 0 0 0 0
0 0 0 0 0 0 0 0 0 0 0 0 0 0 0 0 0 0 0 0 0 0 0 0 0 0 0 0 0 0 0 0 0 0 0 0 0 0 0 0 0 0 0 0
0 0 0 0 0 0 0 0 0 0 0 0 0 0 0 0 0 0 0 0 0 0 0 0 0 0 0 0 0 0 0 0 0 0 0 0 0 0 0 0 0 0 0 0
0 0 0 0 0 0 0 0 0 0 0 0 0 0 0 0 0 0 0 0 0 0 0 0 0 0 0 0 0 0 0 0 0 0 0 0 0 0 0 0 0 0 0 0
0 0 0 0 0 0 0 0 0 0 0 0 0 0 0 0 0 0 0 0 0 0 0 0 0 0 0 0 0 0 0 0 0 0 0 0 0 0 0 0 0 0 0 0
0 0 0 0 0 0 0 0 0 0 0 0 0 0 0 0 0 0 0 0 0 0 0 0 0 0 0 0 0 0 0 0 0 0 0 0 0 0 0 0 0 0 0 0
0 0 0 0 0 0 0 0 0 0 0 0 0 0 0 0 0 0 0 0 0 0 0 0 0 0 0 0 0 0 0 0 0 0 0 0 0 0 0 0 0 0 0 0
0 0 0 0 0 0 0 0 0 0 0 0 0 0 0 0 0 0 0 0 0 0 0 0 0 0 0 0 0 0 0 0 0 0 0 0 0 0 0 0 0 0 0 0
0 0 0 0 0 0 0 0 0 0 0 0 0 0 0 0 0 0 0 0 0 0 0 0 0 0 0 0 0 0 0 0 0 0 0 0 0 0 0 0 0 0 0 0
0 0 0 0 0 0 0 0 0 0 0 0 0 0 0 0 0 0 0 0 0 0 0 0 0 0 0 0 0 0 0 0 0 0 0 0 0 0 0 0 0 0 0 0
0 0 0 0 0 0 0 0 0 0 0 0 0 0 0 0 0 0 0 0 0 0 0 0 0 0 0 0 0 0 0 0 0 0 0 0 0 0 0 0 0 0 0 0
0 0 0 0 0 0 0 0 0 0 0 0 0 0 0 0 0 0 0 0 0 0 0 0 0 0 0 0 0 0 0 0 0 0 0 0 0 0 0 0 0 0 0 0
0 0 0 0 0 0 0 0 0 0 0 0 0 0 0 0 0 0 0 0 0 0 0 0 0 0 0 0 0 0 0 0 0 0 0 0 0 0 0 0 0 0 0 0
-0 0 0 0 0 0 0 0 0 0 0 0 0 0 0 0 0 0 0 0 0 0 0 0 0 0 0 0 0 0 0 0 0 0 0 0 0 0 0 0 0 0 0 0
Wind_Speed
1 1 1 1 1 2 3 5 5 4 4 3 3 3 3 4 5 5 4 4 3 3 2 2 2 2 1 1 2 2 3 2 1 1 1 2 2 2 2 2 2 2 2 3
2 2 2 2 2 1 2 2 2 2 2 0 3 4 4 4 5 5 4 4 3 3 2 2 1 1 1 1 2 2 2 2 1 2 2 2 1 1 2 2 2 2 3 3
1 2 2 2 2 1 1 1 3 4 3 4 3 4 4 4 5 5 5 4 4 3 2 2 1 1 1 1 2 2 2 2 2 2 2 1 2 2 2 2 2 3 3 3
2 2 2 5 2 3 4 1 1 2 3 4 4 3 2 3 5 4 4 4 3 2 1 1 1 1 1 2 2 2 2 2 2 2 2 1 2 2 2 1 2 2 2 3
3 2 3 3 2 3 4 1 1 4 5 5 5 4 2 1 3 4 4 3 3 3 2 2 1 2 2 3 3 2 2 1 1 1 1 1 1 1 1 1 1 1 2 3
4 3 4 5 2 3 4 2 3 5 7 6 5 2 2 2 3 4 3 3 3 3 3 2 1 2 3 2 2 1 1 1 1 1 1 1 0 1 1 0 1 1 2 2
3 3 5 3 2 4 2 6 4 6 6 6 5 4 3 4 4 4 4 3 3 3 3 1 1 3 3 2 1 1 1 1 1 1 1 1 1 1 1 1 1 2 2 3
4 2 6 1 4 5 6 2 4 5 5 5 5 5 5 5 5 5 4 3 3 3 2 1 2 3 3 1 0 1 1 1 1 1 1 1 1 1 1 1 1 2 2 3
6 6 4 1 2 2 4 4 4 5 5 7 6 5 5 5 5 4 4 3 2 3 2 1 2 3 2 1 1 1 2 1 1 1 2 1 1 1 1 1 1 1 1 2
2 1 0 1 2 2 3 4 5 6 7 7 6 6 6 5 4 4 3 2 2 3 2 1 1 1 2 2 2 2 2 1 1 1 2 2 1 1 0 1 1 1 1 2
2 1 2 1 2 4 5 6 7 6 5 7 8 7 6 5 4 3 3 2 2 3 2 1 1 1 1 2 3 2 1 1 1 1 1 1 2 1 1 2 3 2 2 2
7 8 6 5 4 5 7 6 7 7 6 5 7 7 6 5 4 3 3 2 2 2 2 2 1 1 1 1 3 3 1 0 0 0 1 1 1 2 2 2 3 4 5 5
5 5 5 5 6 5 6 6 6 7 7 6 5 6 6 4 3 3 3 3 3 3 3 2 2 1 1 2 3 3 2 1 1 1 1 1 1 1 3 4 3 3 4 4
7 8 6 5 6 6 6 6 6 6 5 6 5 5 5 4 3 4 4 4 4 3 3 3 2 2 2 3 3 3 2 2 2 2 2 2 2 2 2 3 4 4 3 4
5 6 7 7 7 6 6 7 7 5 5 4 5 5 6 5 5 4 4 3 3 3 3 3 3 3 3 3 3 3 3 2 2 2 2 2 2 2 2 3 3 4 4 4
7 8 9 10 9 7 7 7 7 6 5 5 5 5 6 5 4 3 3 4 4 4 4 4 4 4 3 3 3 2 2 4 3 2 2 2 2 2 3 3 3 4 4 4
11 9 8 8 8 7 6 7 8 7 6 6 6 5 5 4 3 3 3 4 4 4 4 4 5 4 3 4 4 3 3 3 4 3 3 3 3 3 4 4 4 4 5 5
11 12 12 12 11 9 7 7 6 7 6 6 6 6 5 5 5 5 4 3 2 2 4 5 5 4 4 4 4 3 3 3 3 3 3 3 3 4 4 4 5 6 5 5
8 9 9 9 9 9 8 7 7 6 6 6 6 6 6 6 5 4 3 3 4 4 5 5 6 5 4 5 5 3 3 3 3 3 3 4 4 4 4 4 5 5 5 5
8 8 9 8 8 7 7 6 6 5 6 6 6 5 5 5 5 4 4 4 5 6 5 4 4 4 5 5 5 4 4 5 4 4 4 4 4 5 5 5 5 5 5 5
9 9 9 8 7 7 7 7 7 6 6 7 7 7 6 5 5 4 4 4 6 6 5 6 4 4 5 4 5 4 5 5 5 5 4 5 5 5 5 6 6 6 6 6
8 8 9 8 7 6 5 5 6 6 6 6 6 6 5 4 4 4 5 6 6 5 4 4 4 6 7 6 4 4 5 5 5 5 5 5 5 6 6 6 6 6 6 6
8 8 8 8 8 6 5 4 5 6 6 6 6 6 6 6 5 5 5 5 5 6 5 5 7 9 9 5 4 5 6 6 6 6 6 6 6 6 7 7 7 7 7 7
7 7 7 6 6 6 5 4 4 4 5 5 5 6 6 4 4 5 5 5 6 6 5 6 9 10 8 5 5 6 6 6 6 6 7 7 7 7 7 7 7 7 7 9
7 7 7 7 6 5 5 4 3 3 3 3 3 4 5 5 5 5 4 5 6 6 5 7 9 9 6 5 6 6 7 7 7 6 7 7 7 7 7 7 7 7 8 8
7 6 6 6 5 4 4 4 3 3 3 2 2 3 3 3 4 3 3 4 5 6 5 4 4 5 5 6 7 7 7 7 7 8 8 8 8 8 8 8 10 8 8 8
6 5 4 3 2 4 4 4 4 4 4 4 3 3 3 3 3 3 4 3 4 4 4 4 4 4 5 5 6 6 6 6 7 7 7 7 7 7 8 9 8 7 7 8
Wind_Direction
186 234 133 111 73 126 149 175 181 212 201 225 196 173 153 136 128 124 122 124 124 119 108 91 75 70 86 105 118 122 116 111 117 110 92 80 59 41 40 40 37 27 28 17
33 30 89 61 14 78 110 135 153 145 225 201 123 115 120 133 138 143 148 146 141 135 127 125 120 111 107 122 122 119 122 131 122 103 87 74 62 54 52 40 29 33 25 12
251 310 26 327 286 167 141 159 167 196 214 144 129 142 156 161 161 163 161 156 155 158 162 166 164 160 156 146 125 123 119 113 106 99 83 64 67 59 48 31 27 24 16 12
124 56 235 255 288 147 124 83 133 139 142 147 145 135 133 153 159 159 160 160 165 167 158 144 138 123 122 124 127 127 116 106 101 101 91 66 64 58 43 33 27 13 4 360
120 152 280 279 198 159 140 228 186 151 142 128 120 83 29 84 146 156 156 159 166 166 153 142 139 126 116 114 121 123 114 103 99 107 104 79 50 32 30 48 22 7 351 356
127 153 234 248 221 149 104 285 203 161 159 155 135 136 236 171 131 127 124 129 134 128 118 121 120 118 114 110 108 121 129 124 96 104 121 139 330 358 25 44 1 356 357 351
148 189 256 251 162 126 163 244 179 162 163 162 169 181 157 126 115 117 113 114 119 118 119 129 122 116 114 107 121 156 113 94 76 75 110 130 64 40 56 36 18 10 358 345
145 173 250 242 135 174 206 164 136 149 153 148 133 116 117 119 117 116 108 103 110 113 115 109 119 123 120 127 180 101 100 92 67 41 38 70 66 38 36 51 26 3 356 342
176 203 242 256 184 163 142 135 142 144 140 135 129 132 129 125 126 124 122 118 113 120 109 87 119 136 141 184 139 103 90 67 40 35 32 47 71 28 14 33 29 339 341 329
135 261 293 98 107 109 126 133 134 133 135 137 134 138 134 135 135 130 125 127 121 117 114 107 121 147 174 181 139 117 107 72 53 51 19 19 27 9 334 300 305 301 302 308
147 182 108 69 147 133 109 110 113 114 126 138 134 137 143 145 146 143 136 131 132 139 153 181 165 158 174 158 133 124 119 97 54 40 21 7 356 311 275 259 228 231 251 250
199 196 171 191 174 144 133 138 139 130 124 131 142 147 147 150 151 148 148 144 144 159 173 189 175 190 206 160 145 141 138 96 16 336 325 320 321 331 322 270 275 249 236 236
174 154 147 144 141 140 140 146 145 140 144 146 147 149 148 149 155 152 153 160 176 187 190 190 183 206 221 176 159 164 182 214 233 254 267 275 279 302 319 328 322 294 282 268
134 118 115 136 149 146 138 137 128 125 136 145 145 143 143 143 148 162 180 192 190 181 184 186 190 227 232 185 176 190 199 216 220 238 247 256 266 273 274 291 309 313 309 290
142 134 141 135 127 126 126 126 128 136 141 140 143 150 155 160 173 191 196 184 168 174 192 191 203 238 235 185 186 202 209 222 230 241 251 252 257 265 274 276 278 287 300 305
123 112 121 130 139 139 136 143 152 165 163 160 164 172 175 174 177 186 187 172 170 197 208 200 218 237 220 188 192 210 228 239 237 234 253 267 270 271 277 280 282 282 284 286
131 138 143 150 156 159 165 169 170 171 169 172 179 173 162 156 164 191 205 200 199 213 214 209 225 233 214 199 198 211 225 242 244 242 248 258 266 268 267 270 273 274 273 267
162 164 166 165 166 168 173 170 167 168 174 179 167 159 163 172 190 207 211 194 193 235 240 230 229 227 221 214 208 211 218 233 241 246 251 255 261 262 262 264 270 274 279 281
151 154 158 163 165 166 169 172 174 175 172 164 165 176 186 192 199 203 190 178 198 234 249 235 225 225 229 227 215 209 218 234 246 251 252 259 265 266 265 266 270 272 275 277
151 153 154 157 160 161 168 171 169 171 172 166 168 176 189 203 200 194 188 207 223 225 229 223 214 221 230 231 217 214 222 233 243 251 253 257 263 268 270 270 271 271 271 269
153 153 154 158 164 168 170 167 165 174 175 169 176 190 201 209 197 184 188 234 252 232 226 226 223 231 232 227 217 217 225 233 241 248 255 259 264 268 271 272 273 271 269 269
153 154 159 160 160 165 167 164 167 170 170 177 187 190 192 206 205 204 216 228 246 231 214 220 226 232 232 226 220 223 230 237 242 246 251 255 259 265 269 270 269 269 268 266
152 155 158 162 164 161 153 161 170 172 178 187 192 194 199 208 200 200 238 241 234 232 225 230 233 235 234 228 226 231 237 241 245 248 251 254 256 259 264 268 266 266 267 267
149 153 156 152 142 143 162 183 179 180 185 193 201 200 195 202 223 225 229 245 237 233 234 240 242 241 234 228 230 235 240 244 248 251 254 257 258 259 260 262 265 265 265 266
149 147 144 145 154 171 181 174 163 175 179 201 217 211 203 200 212 230 226 234 238 237 245 249 246 242 233 229 232 238 243 246 248 249 251 254 258 260 259 259 259 263 266 266
150 156 163 170 172 170 166 163 172 188 187 207 235 228 217 215 220 226 228 235 238 238 243 250 245 234 230 234 239 243 247 252 255 256 256 257 260 262 264 264 263 262 263 265
138 139 140 142 157 164 165 170 180 195 195 198 222 232 222 220 221 226 230 237 240 241 244 247 243 239 239 243 248 251 253 255 257 259 260 259 260 261 264 264 264 264 264 266